Tracking 19908 objects as of 19-Oct-2019
HD Live streaming from Space Station
objects crossing your sky now

METEOR 1-27 DEB

Track METEOR 1-27 DEB now!
10-day predictions


NORAD ID: 38533
Int'l Code: 1977-024D
Perigee: 786.6 km
Apogee: 829.9 km
Inclination: 81.2 °
Period: 100.9 minutes
Semi major axis: 7179 km
RCS: 0.0037 m2 (small)
Launch date: April 5, 1977
Source: Commonwealth of Independent States (former USSR) (CIS)
Launch site: PLESETSK MISSILE AND SPACE COMPLEX (PKMTR)

Note: This is SATELLITE DEBRIS
aabbcc
Your satellite tracking list
Your tracking list is empty




NASA's NSSDC Master Catalog

Two Line Element Set (TLE):
1 38533U 77024D   19287.25581912 +.00001451 +00000-0 +58668-3 0  9999
2 38533 081.2393 279.6558 0030150 261.4331 098.3432 14.27187167449641
Source of the keplerian elements: AFSPC